This is the latest recevied weather packets stored in our database for station/object EA4AC-10. If no packets are shown the sender has not sent any weather packets the latest 1 day(s).
| Time | Temp. | Humidity | Pressure | Rain* | Wind** | Luminosity | Snow |
|---|---|---|---|---|---|---|---|
| 1778094259 | 22.78° C | 32% | 937 hPa | - | - | - | - |
| 1778093336 | 22.78° C | 29% | 937 hPa | - | - | - | - |
| 1778088759 | 23.33° C | 30% | 937 hPa | - | - | - | - |
| 1778087853 | 23.89° C | 30% | 937 hPa | - | - | - | - |
| 1778086944 | 23.33° C | 31% | 937 hPa | - | - | - | - |
| 1778083280 | 22.78° C | 30% | 938 hPa | - | - | - | - |
| 1778079593 | 22.22° C | 32% | 938 hPa | - | - | - | - |
| 1778076829 | 21.67° C | 31% | 939 hPa | - | - | - | - |
| 1778072254 | 21.11° C | 30% | 939 hPa | - | - | - | - |
| 1778070408 | 21.11° C | 30% | 940 hPa | - | - | - | - |
| 1778066738 | 20° C | 30% | 940 hPa | - | - | - | - |
| 1778065816 | 20° C | 30% | 940 hPa | - | - | - | - |
| 1778064892 | 20° C | 31% | 940 hPa | - | - | - | - |
| 1778063973 | 20° C | 33% | 941 hPa | - | - | - | - |
| 1778063063 | 20° C | 32% | 941 hPa | - | - | - | - |
| 1778059404 | 19.44° C | 33% | 941 hPa | - | - | - | - |
| 1778058482 | 19.44° C | 33% | 941 hPa | - | - | - | - |
| 1778056637 | 18.89° C | 34% | 941 hPa | - | - | - | - |
| 1778054795 | 18.89° C | 38% | 941 hPa | - | - | - | - |
| 1778052953 | 18.89° C | 42% | 941 hPa | - | - | - | - |
| 1778052034 | 18.89° C | 42% | 941 hPa | - | - | - | - |
| 1778050195 | 18.89° C | 42% | 941 hPa | - | - | - | - |
| 1778049276 | 18.89° C | 41% | 940 hPa | - | - | - | - |
| 1778047450 | 18.89° C | 41% | 940 hPa | - | - | - | - |
| 1778046528 | 18.89° C | 39% | 940 hPa | - | - | - | - |
* Rain since midnight (hover to see other rain measurements)
** Current wind speed in m/s (hover to see current wind gust speed)